Location: Chmeli�t?
(49.8978°N, 15.0526°E)
Time: 07:49:16
(UTC+00:00)

Cosmos 2074 Rocket - Pass Details

Date: 10 October 2020
Orbit: 967 x 987 km, 82.9° (Epoch: 30 October)

Event Time Altitude Azimuth Distance (km) Brightness Sun altitude
Rises 19:28:25 0° 357° (N) 3,690 7.4 -30.6°
Reaches altitude 10° 19:31:32 10° 11° (N) 2,734 6.5 -31.0°
Enters shadow 19:33:46 18° 29° (NNE) 2,202 5.8 -31.3°
